Location: Unspecified
(0.0000°N, 0.0000°E)
Time: 22:32:27
(UTC+00:00)

Cosmos 2058 - Visible Passes

Search period start: 22 April 2019 00:00
Search period end: 02 May 2019 00:00
Orbit: 563 x 584 km, 82.5° (Epoch: 22 April)

Date Brightness Start Highest point End Pass type
(mag) Time Alt. Az. Time Alt. Az. Time Alt. Az.
22 Apr 4.2 18:28:00 10° NE 18:30:54 19° E 18:33:49 10° SE visible
22 Apr 5.9 20:05:33 10° WNW 20:07:32 13° W 20:09:30 10° WSW visible
23 Apr 3.8 18:30:26 10° NNE 18:33:54 27° E 18:37:23 10° SE visible
24 Apr 3.3 18:33:05 10° NNE 18:36:54 39° E 18:40:45 10° SSE visible
25 Apr 2.9 18:35:54 10° N 18:39:54 60° E 18:43:57 10° SSE visible
26 Apr 2.8 18:38:50 10° N 18:42:55 90° NNE 18:47:01 10° S visible
27 Apr 3.5 18:41:54 10° NNW 18:45:54 60° W 18:49:57 10° S visible
28 Apr 4.4 18:45:06 10° NNW 18:48:56 40° W 18:52:47 10° SSW visible
29 Apr 5.2 18:48:27 10° NW 18:51:56 27° W 18:55:26 10° SSW visible
30 Apr 6.4 05:15:29 10° ESE 05:16:54 11° E 05:18:19 10° ENE visible
30 Apr 5.8 18:52:01 10° NW 18:54:56 19° W 18:57:52 10° SW visible
01 May 6.0 05:17:12 10° SE 05:19:55 17° E 05:22:36 10° NE visible
01 May 6.1 18:55:58 10° WNW 18:57:57 13° W 18:59:56 10° WSW visible
